Time,TemperatureF,DewpointF,PressureIn,WindDirection,WindDirectionDegrees,WindSpeedMPH,WindSpeedGustMPH,Humidity,HourlyPrecipIn,Conditions,Clouds,dailyrainin,SoftwareType,DateUTC
2013-04-16 00:02:00,54.0,51.0,29.86,North,355,1.0,7.0,89,0.00,,,0.49,,2013-04-16 05:02:00,
2013-04-16 00:12:00,54.0,51.0,29.86,North,355,1.0,7.0,89,0.00,,,0.49,,2013-04-16 05:12:00,
2013-04-16 00:22:00,54.0,51.0,29.88,NNW,333,1.0,8.0,88,0.00,,,0.49,,2013-04-16 05:22:00,
2013-04-16 00:32:00,53.0,50.0,29.89,ESE,116,3.0,11.0,89,0.00,,,0.49,,2013-04-16 05:32:00,
2013-04-16 00:42:00,53.0,50.0,29.89,ESE,116,3.0,11.0,89,0.00,,,0.49,,2013-04-16 05:42:00,
2013-04-16 00:52:00,53.0,50.0,29.90,NNW,348,7.0,15.0,90,0.00,,,0.49,,2013-04-16 05:52:00,
2013-04-16 01:02:00,52.0,49.0,29.92,North,355,6.0,14.0,88,0.00,,,0.49,,2013-04-16 06:02:00,
2013-04-16 01:12:00,52.0,49.0,29.92,North,355,6.0,14.0,88,0.00,,,0.49,,2013-04-16 06:12:00,
2013-04-16 01:22:00,51.0,47.0,29.94,NNW,335,10.0,17.0,87,0.00,,,0.49,,2013-04-16 06:22:00,
2013-04-16 01:32:00,50.0,46.0,29.93,NW,315,4.0,12.0,87,0.00,,,0.49,,2013-04-16 06:32:00,
2013-04-16 01:42:00,50.0,46.0,29.93,NW,315,4.0,12.0,87,0.00,,,0.49,,2013-04-16 06:42:00,
2013-04-16 01:52:00,50.0,46.0,29.94,NNW,340,6.0,14.0,86,0.00,,,0.49,,2013-04-16 06:52:00,
2013-04-16 02:02:00,49.0,45.0,29.94,NNW,342,2.0,13.0,87,0.00,,,0.49,,2013-04-16 07:02:00,
2013-04-16 02:12:00,49.0,45.0,29.94,NNW,342,2.0,13.0,87,0.00,,,0.49,,2013-04-16 07:12:00,
2013-04-16 02:22:00,49.0,46.0,29.93,North,355,6.0,16.0,88,0.00,,,0.49,,2013-04-16 07:22:00,
2013-04-16 02:32:00,48.0,45.0,29.95,North,5,5.0,11.0,90,0.00,,,0.49,,2013-04-16 07:32:00,
2013-04-16 02:42:00,48.0,45.0,29.95,North,5,5.0,11.0,90,0.00,,,0.49,,2013-04-16 07:42:00,
2013-04-16 02:53:00,48.0,45.0,29.95,NE,47,3.0,11.0,91,0.00,,,0.49,,2013-04-16 07:53:00,
2013-04-16 03:02:00,48.0,45.0,29.93,North,11,1.0,9.0,91,0.00,,,0.49,,2013-04-16 08:02:00,
2013-04-16 03:12:00,48.0,45.0,29.93,North,11,1.0,9.0,91,0.00,,,0.49,,2013-04-16 08:12:00,
2013-04-16 03:22:00,48.0,45.0,29.93,NNW,345,5.0,11.0,91,0.00,,,0.49,,2013-04-16 08:22:00,
2013-04-16 03:32:00,48.0,45.0,29.94,North,11,2.0,11.0,91,0.00,,,0.49,,2013-04-16 08:32:00,
2013-04-16 03:42:00,48.0,45.0,29.94,North,11,2.0,11.0,91,0.00,,,0.49,,2013-04-16 08:42:00,
2013-04-16 03:52:00,48.0,45.0,29.98,NNW,343,9.0,14.0,91,0.00,,,0.49,,2013-04-16 08:52:00,
2013-04-16 04:02:00,48.0,45.0,29.98,NE,49,0.0,5.0,91,0.20,,,0.69,,2013-04-16 09:02:00,
2013-04-16 04:12:00,48.0,45.0,29.98,NE,49,0.0,5.0,91,0.20,,,0.69,,2013-04-16 09:12:00,
2013-04-16 04:22:00,47.0,45.0,30.01,NW,311,1.0,5.0,92,0.30,,,0.79,,2013-04-16 09:22:00,
2013-04-16 04:33:00,47.0,45.0,29.97,North,9,1.0,7.0,93,0.34,,,0.83,,2013-04-16 09:33:00,
2013-04-16 04:42:00,47.0,45.0,29.97,North,9,1.0,7.0,93,0.34,,,0.83,,2013-04-16 09:42:00,
2013-04-16 04:52:00,47.0,45.0,29.98,North,10,0.0,3.0,93,0.35,,,0.84,,2013-04-16 09:52:00,
2013-04-16 05:03:00,47.0,45.0,29.98,North,5,1.0,7.0,94,0.16,,,0.85,,2013-04-16 10:03:00,
2013-04-16 05:13:00,47.0,45.0,29.98,North,5,1.0,7.0,94,0.16,,,0.85,,2013-04-16 10:13:00,
2013-04-16 05:23:00,47.0,45.0,30.05,NW,325,1.0,9.0,94,0.06,,,0.86,,2013-04-16 10:23:00,
2013-04-16 05:33:00,47.0,45.0,29.98,NE,44,4.0,7.0,94,0.06,,,0.89,,2013-04-16 10:33:00,
2013-04-16 05:42:00,47.0,45.0,29.98,NE,44,4.0,7.0,94,0.06,,,0.89,,2013-04-16 10:42:00,
2013-04-16 05:52:00,47.0,45.0,30.00,ESE,113,0.0,11.0,94,0.06,,,0.90,,2013-04-16 10:52:00,
2013-04-16 06:02:00,47.0,45.0,30.03,NNW,340,6.0,15.0,94,0.05,,,0.90,,2013-04-16 11:02:00,
2013-04-16 06:12:00,47.0,45.0,30.03,NNW,340,6.0,15.0,94,0.05,,,0.90,,2013-04-16 11:12:00,
2013-04-16 06:22:00,47.0,45.0,30.02,NW,325,4.0,11.0,94,0.04,,,0.90,,2013-04-16 11:22:00,
2013-04-16 06:32:00,46.0,44.0,30.02,NE,44,4.0,9.0,94,0.01,,,0.90,,2013-04-16 11:32:00,
2013-04-16 06:42:00,46.0,44.0,30.02,NE,44,4.0,9.0,94,0.01,,,0.90,,2013-04-16 11:42:00,
2013-04-16 06:52:00,46.0,44.0,30.02,North,360,3.0,9.0,94,0.00,,,0.90,,2013-04-16 11:52:00,
2013-04-16 07:02:00,46.0,44.0,30.04,NNW,342,4.0,7.0,94,0.00,,,0.90,,2013-04-16 12:02:00,
2013-04-16 07:12:00,46.0,44.0,30.04,NNW,342,4.0,7.0,94,0.00,,,0.90,,2013-04-16 12:12:00,
2013-04-16 07:22:00,46.0,44.0,30.04,NNW,340,4.0,8.0,94,0.00,,,0.90,,2013-04-16 12:22:00,
2013-04-16 07:32:00,46.0,45.0,30.04,North,360,1.0,8.0,95,0.00,,,0.90,,2013-04-16 12:32:00,
2013-04-16 07:42:00,46.0,45.0,30.04,North,360,1.0,8.0,95,0.00,,,0.90,,2013-04-16 12:42:00,
2013-04-16 07:52:00,46.0,45.0,30.04,NNW,347,1.0,7.0,95,0.00,,,0.90,,2013-04-16 12:52:00,
2013-04-16 08:02:00,46.0,45.0,30.05,North,360,0.0,3.0,95,0.00,,,0.90,,2013-04-16 13:02:00,
2013-04-16 08:12:00,46.0,45.0,30.05,North,360,0.0,3.0,95,0.00,,,0.90,,2013-04-16 13:12:00,
2013-04-16 08:22:00,46.0,44.0,30.06,NNE,21,2.0,8.0,94,0.00,,,0.90,,2013-04-16 13:22:00,
2013-04-16 08:32:00,46.0,44.0,30.06,NE,51,1.0,6.0,94,0.00,,,0.82,,2013-04-16 13:32:00,
2013-04-16 08:42:00,46.0,44.0,30.06,NE,51,1.0,6.0,94,0.00,,,0.82,,2013-04-16 13:42:00,
2013-04-16 08:52:00,46.0,45.0,30.06,NNW,344,1.0,7.0,95,0.00,,,0.82,,2013-04-16 13:52:00,
2013-04-16 09:02:00,46.0,45.0,30.08,NNW,345,2.0,5.0,95,0.00,,,0.82,,2013-04-16 14:02:00,
2013-04-16 09:12:00,46.0,45.0,30.08,NNW,345,2.0,5.0,95,0.00,,,0.82,,2013-04-16 14:12:00,
2013-04-16 09:22:00,46.0,45.0,30.08,NNW,340,5.0,9.0,95,0.00,,,0.82,,2013-04-16 14:22:00,
2013-04-16 09:32:00,46.0,44.0,30.08,NNW,340,3.0,6.0,94,0.01,,,0.48,,2013-04-16 14:32:00,
2013-04-16 09:42:00,46.0,44.0,30.08,NNW,340,3.0,6.0,94,0.01,,,0.48,,2013-04-16 14:42:00,
2013-04-16 09:52:00,45.0,43.0,30.08,NNW,348,6.0,11.0,94,0.01,,,0.48,,2013-04-16 14:52:00,
2013-04-16 10:02:00,45.0,44.0,30.08,NNE,17,3.0,8.0,95,0.01,,,0.48,,2013-04-16 15:02:00,
2013-04-16 10:12:00,45.0,44.0,30.08,NNE,17,3.0,8.0,95,0.01,,,0.48,,2013-04-16 15:12:00,
2013-04-16 10:22:00,45.0,44.0,30.07,NNW,337,3.0,10.0,95,0.01,,,0.48,,2013-04-16 15:22:00,
2013-04-16 10:33:00,45.0,44.0,30.09,NNW,342,4.0,7.0,95,0.00,,,0.42,,2013-04-16 15:33:00,
2013-04-16 10:43:00,45.0,44.0,30.09,NNW,342,4.0,7.0,95,0.00,,,0.42,,2013-04-16 15:43:00,
2013-04-16 10:53:00,45.0,43.0,30.08,NNE,22,1.0,7.0,94,0.00,,,0.42,,2013-04-16 15:53:00,
2013-04-16 11:03:00,45.0,44.0,30.10,North,350,3.0,9.0,95,0.01,,,0.43,,2013-04-16 16:03:00,
2013-04-16 11:13:00,45.0,44.0,30.10,North,350,3.0,9.0,95,0.01,,,0.43,,2013-04-16 16:13:00,
2013-04-16 11:23:00,44.0,43.0,30.09,NNW,342,5.0,10.0,95,0.08,,,0.50,,2013-04-16 16:23:00,
2013-04-16 11:32:00,44.0,43.0,30.11,NNW,344,4.0,8.0,95,0.13,,,0.55,,2013-04-16 16:32:00,
2013-04-16 11:42:00,44.0,43.0,30.11,NNW,344,4.0,8.0,95,0.13,,,0.55,,2013-04-16 16:42:00,
2013-04-16 11:52:00,44.0,43.0,30.09,NE,43,2.0,5.0,95,0.14,,,0.56,,2013-04-16 16:52:00,
2013-04-16 12:02:00,44.0,43.0,30.10,NNE,15,2.0,11.0,95,0.13,,,0.56,,2013-04-16 17:02:00,
2013-04-16 12:12:00,44.0,43.0,30.10,NNE,15,2.0,11.0,95,0.13,,,0.56,,2013-04-16 17:12:00,
2013-04-16 12:22:00,44.0,43.0,30.09,North,5,2.0,7.0,95,0.07,,,0.57,,2013-04-16 17:22:00,
2013-04-16 12:32:00,44.0,43.0,30.09,NNW,338,0.0,5.0,95,0.02,,,0.57,,2013-04-16 17:32:00,
2013-04-16 12:43:00,44.0,43.0,30.09,NNW,338,0.0,5.0,95,0.02,,,0.57,,2013-04-16 17:43:00,
2013-04-16 12:52:00,45.0,44.0,30.11,NNW,338,4.0,7.0,95,0.01,,,0.57,,2013-04-16 17:52:00,
2013-04-16 13:02:00,45.0,44.0,30.08,SE,124,2.0,5.0,95,0.01,,,0.57,,2013-04-16 18:02:00,
2013-04-16 13:12:00,45.0,44.0,30.08,SE,124,2.0,5.0,95,0.01,,,0.57,,2013-04-16 18:12:00,
2013-04-16 13:22:00,45.0,44.0,30.09,ENE,65,1.0,5.0,95,0.00,,,0.57,,2013-04-16 18:22:00,
2013-04-16 13:32:00,45.0,44.0,30.09,NNW,331,0.0,5.0,95,0.00,,,0.57,,2013-04-16 18:32:00,
2013-04-16 13:42:00,45.0,44.0,30.09,NNW,331,0.0,5.0,95,0.00,,,0.57,,2013-04-16 18:42:00,
2013-04-16 13:52:00,45.0,44.0,30.09,North,9,2.0,7.0,95,0.00,,,0.57,,2013-04-16 18:52:00,
2013-04-16 14:02:00,46.0,45.0,30.09,NNW,348,2.0,4.0,96,0.00,,,0.57,,2013-04-16 19:02:00,
2013-04-16 14:12:00,46.0,45.0,30.09,NNW,348,2.0,4.0,96,0.00,,,0.57,,2013-04-16 19:12:00,
2013-04-16 14:22:00,46.0,45.0,30.07,North,360,1.0,6.0,95,0.00,,,0.57,,2013-04-16 19:22:00,
2013-04-16 14:32:00,46.0,45.0,30.08,North,5,1.0,6.0,95,0.00,,,0.57,,2013-04-16 19:32:00,
2013-04-16 14:42:00,46.0,45.0,30.08,North,5,1.0,6.0,95,0.00,,,0.57,,2013-04-16 19:42:00,
2013-04-16 14:52:00,46.0,45.0,30.09,NNW,346,0.0,6.0,96,0.00,,,0.57,,2013-04-16 19:52:00,
2013-04-16 15:02:00,47.0,46.0,30.10,NNW,340,1.0,8.0,95,0.00,,,0.57,,2013-04-16 20:02:00,
2013-04-16 15:12:00,47.0,46.0,30.10,NNW,340,1.0,8.0,95,0.00,,,0.57,,2013-04-16 20:12:00,
2013-04-16 15:22:00,47.0,46.0,30.10,NNW,347,0.0,7.0,96,0.00,,,0.57,,2013-04-16 20:22:00,
2013-04-16 15:32:00,47.0,46.0,30.09,NE,34,2.0,9.0,95,0.00,,,0.57,,2013-04-16 20:32:00,
2013-04-16 15:42:00,47.0,46.0,30.09,NE,34,2.0,9.0,95,0.00,,,0.57,,2013-04-16 20:42:00,
2013-04-16 15:52:00,47.0,46.0,30.09,NNE,28,2.0,5.0,96,0.00,,,0.57,,2013-04-16 20:52:00,
2013-04-16 16:02:00,47.0,46.0,30.09,NNE,24,0.0,7.0,96,0.00,,,0.57,,2013-04-16 21:02:00,
2013-04-16 16:12:00,47.0,46.0,30.09,NNE,24,0.0,7.0,96,0.00,,,0.57,,2013-04-16 21:12:00,
2013-04-16 16:22:00,47.0,46.0,30.09,NE,35,1.0,7.0,95,0.00,,,0.57,,2013-04-16 21:22:00,
2013-04-16 16:32:00,46.0,45.0,30.09,North,5,4.0,7.0,95,0.00,,,0.57,,2013-04-16 21:32:00,
2013-04-16 16:43:00,46.0,45.0,30.09,North,5,4.0,7.0,95,0.00,,,0.57,,2013-04-16 21:43:00,
2013-04-16 16:52:00,46.0,45.0,30.09,NNE,12,1.0,6.0,95,0.00,,,0.57,,2013-04-16 21:52:00,
2013-04-16 17:02:00,47.0,46.0,30.08,ENE,66,2.0,7.0,95,0.00,,,0.57,,2013-04-16 22:02:00,
2013-04-16 17:13:00,47.0,46.0,30.08,ENE,66,2.0,7.0,95,0.00,,,0.57,,2013-04-16 22:13:00,
2013-04-16 17:22:00,46.0,45.0,30.09,NE,36,1.0,8.0,95,0.00,,,0.57,,2013-04-16 22:22:00,
2013-04-16 17:33:00,46.0,45.0,30.09,ENE,59,4.0,8.0,95,0.00,,,0.57,,2013-04-16 22:33:00,
2013-04-16 17:42:00,46.0,45.0,30.09,ENE,59,4.0,8.0,95,0.00,,,0.57,,2013-04-16 22:42:00,
2013-04-16 17:52:00,46.0,45.0,30.08,ENE,61,0.0,5.0,95,0.00,,,0.57,,2013-04-16 22:52:00,
2013-04-16 18:02:00,47.0,46.0,30.09,NNW,346,2.0,6.0,95,0.00,,,0.57,,2013-04-16 23:02:00,
2013-04-16 18:12:00,47.0,46.0,30.09,NNW,346,2.0,6.0,95,0.00,,,0.57,,2013-04-16 23:12:00,
2013-04-16 18:22:00,47.0,46.0,30.09,NE,45,4.0,10.0,95,0.00,,,0.57,,2013-04-16 23:22:00,
2013-04-16 18:32:00,47.0,46.0,30.09,North,9,3.0,7.0,95,0.00,,,0.57,,2013-04-16 23:32:00,
2013-04-16 18:42:00,47.0,46.0,30.09,North,9,3.0,7.0,95,0.00,,,0.57,,2013-04-16 23:42:00,
2013-04-16 18:52:00,47.0,46.0,30.09,NNE,33,2.0,9.0,95,0.00,,,0.57,,2013-04-16 23:52:00,
2013-04-16 19:02:00,47.0,46.0,30.09,NE,46,2.0,8.0,95,0.00,,,0.57,,2013-04-17 00:02:00,
2013-04-16 19:12:00,47.0,46.0,30.09,NE,46,2.0,8.0,95,0.00,,,0.57,,2013-04-17 00:12:00,
2013-04-16 19:22:00,47.0,46.0,30.10,ENE,58,1.0,5.0,95,0.00,,,0.57,,2013-04-17 00:22:00,
2013-04-16 19:32:00,47.0,46.0,30.10,NE,42,3.0,8.0,95,0.00,,,0.57,,2013-04-17 00:32:00,
2013-04-16 19:42:00,47.0,46.0,30.10,NE,42,3.0,8.0,95,0.00,,,0.57,,2013-04-17 00:42:00,
2013-04-16 19:52:00,47.0,46.0,30.11,NE,53,2.0,6.0,95,0.00,,,0.57,,2013-04-17 00:52:00,
2013-04-16 20:02:00,47.0,46.0,30.12,NNE,29,2.0,4.0,95,0.00,,,0.57,,2013-04-17 01:02:00,
2013-04-16 20:12:00,47.0,46.0,30.12,NNE,29,2.0,4.0,95,0.00,,,0.57,,2013-04-17 01:12:00,
2013-04-16 20:22:00,47.0,46.0,30.12,NNE,15,0.0,6.0,95,0.00,,,0.57,,2013-04-17 01:22:00,
2013-04-16 20:32:00,47.0,46.0,30.11,North,360,1.0,5.0,95,0.02,,,0.59,,2013-04-17 01:32:00,
2013-04-16 20:42:00,47.0,46.0,30.11,North,360,1.0,5.0,95,0.02,,,0.59,,2013-04-17 01:42:00,
2013-04-16 20:52:00,47.0,46.0,30.11,NNE,27,1.0,6.0,95,0.02,,,0.59,,2013-04-17 01:52:00,
2013-04-16 21:02:00,47.0,46.0,30.12,NE,49,0.0,0.0,95,0.02,,,0.59,,2013-04-17 02:02:00,
2013-04-16 21:12:00,47.0,46.0,30.12,NE,49,0.0,0.0,95,0.02,,,0.59,,2013-04-17 02:12:00,
2013-04-16 21:22:00,47.0,46.0,30.12,NE,49,0.0,2.0,95,0.02,,,0.59,,2013-04-17 02:22:00,
2013-04-16 21:32:00,47.0,46.0,30.11,NE,43,3.0,5.0,95,0.00,,,0.59,,2013-04-17 02:32:00,
2013-04-16 21:42:00,47.0,46.0,30.11,NE,43,3.0,5.0,95,0.00,,,0.59,,2013-04-17 02:42:00,
2013-04-16 21:52:00,47.0,46.0,30.12,ENE,74,0.0,5.0,95,0.00,,,0.59,,2013-04-17 02:52:00,
2013-04-16 22:02:00,47.0,46.0,30.12,NE,53,1.0,6.0,95,0.00,,,0.59,,2013-04-17 03:02:00,
2013-04-16 22:12:00,47.0,46.0,30.12,NE,53,1.0,6.0,95,0.00,,,0.59,,2013-04-17 03:12:00,
2013-04-16 22:22:00,47.0,46.0,30.12,ENE,58,2.0,7.0,95,0.00,,,0.59,,2013-04-17 03:22:00,
2013-04-16 22:33:00,47.0,45.0,30.12,NE,53,2.0,7.0,94,0.00,,,0.59,,2013-04-17 03:33:00,
2013-04-16 22:42:00,47.0,45.0,30.12,NE,53,2.0,7.0,94,0.00,,,0.59,,2013-04-17 03:42:00,
2013-04-16 22:53:00,47.0,45.0,30.11,ENE,71,4.0,6.0,94,0.00,,,0.59,,2013-04-17 03:53:00,
2013-04-16 23:03:00,47.0,45.0,30.10,East,79,2.0,10.0,93,0.00,,,0.59,,2013-04-17 04:03:00,
2013-04-16 23:13:00,47.0,45.0,30.10,East,79,2.0,10.0,93,0.00,,,0.59,,2013-04-17 04:13:00,
2013-04-16 23:22:00,47.0,45.0,30.11,NNE,22,2.0,7.0,92,0.00,,,0.59,,2013-04-17 04:22:00,
2013-04-16 23:33:00,48.0,45.0,30.11,ENE,66,0.0,8.0,91,0.00,,,0.59,,2013-04-17 04:33:00,
2013-04-16 23:42:00,48.0,45.0,30.11,ENE,66,0.0,8.0,91,0.00,,,0.59,,2013-04-17 04:42:00,
2013-04-16 23:52:00,48.0,46.0,30.10,East,80,2.0,8.0,92,0.00,,,0.59,,2013-04-17 04:52:00,